Powrót do katalogu

METEOR 2-17 DEB

AktywnyPO
NORAD 28993·DEBRIS·🇷🇺 Russia

Wystrzelony Jan 30, 1988 z Plesetsk Cosmodrome

Loading…

Następne Przeloty (najbliższe 24 godziny)

TLE

NieaktualneSource: Space-Track

Epoka: Aug 27, 2026, 04:17 UTC

1 28993U 88005H   26239.17898814  .00002103  00000-0  14131-2 0  9998
2 28993  82.5294 209.5170 0016735  69.1289 291.1670 14.00201985600286

Śledź METEOR 2-17 DEB w czasie rzeczywistym z AllMySat

Download on the App Store